Location: Krakow
(50.0830°N, 19.9170°E)
Time: 13:52:43
(UTC+02:00)

Tiros 1 - Pass Details

Date: 07 February 2023
Orbit: 627 x 662 km, 48.4° (Epoch: 01 April)

Event Time Altitude Azimuth Distance (km) Brightness Sun altitude
Exits shadow 05:07:08 16° 207° (SSW) 1,677 9.0 -19.3°
Drops below altitude 10° 05:09:14 10° 181° (S) 2,034 9.7 -19.0°
Sets 05:12:18 0° 161° (SSE) 2,948 10.8 -18.5°
